Preview of NWS' New Version of Forecast
This preview is not operational and should not be used for support decisions.

Regional Weather Roundup (RWR)

Issued by National Weather Service (NWS)

                            
000
ASUS44 KMEG 210500
RWRTN 
TENNESSEE HOURLY STATE WEATHER ROUNDUP
NATIONAL WEATHER SERVICE MEMPHIS TN
1200 AM CDT THU MAR 21 2019

TNZ002-004-019-021-049-052-054-088>092-210600-
WEST TENNESSEE
  
CITY           SKY/WX    TMP DP  RH WIND       PRES   REMARKS
MEMPHIS INTL   CLOUDY    45  44  97 W3        30.12F                  
NWS MEMPHIS      N/A     45 N/A N/A MISG        N/A                   
JACKSON        CLOUDY    46  44  93 W6        30.10F                  
DYERSBURG      MOCLDY    46  44  93 W7        30.11S                  
$$

TNZ008-025-027-028-033-062-065-066-210600-
NORTH MIDDLE TENNESSEE
  
CITY           SKY/WX    TMP DP  RH WIND       PRES   REMARKS
NASHVILLE      CLOUDY    52  37  56 NW8       30.04F                  
CLARKSVILLE    LGT RAIN  47  42  83 W10       30.06S                  
SMYRNA         MOCLDY    52  38  58 NW7       30.05F                  
CROSSVILLE     CLOUDY    49  27  42 S3        30.02F                  
$$

TNZ061-075-076-078-094-096-097-210600-
SOUTH MIDDLE TENNESSEE
  
CITY           SKY/WX    TMP DP  RH WIND       PRES   REMARKS
FAYETTEVILLE   MOCLDY    54  32  43 NW7       30.02F                  
$$

TNZ017-018-042-046-047-210600-
NORTHEAST TENNESSEE
  
CITY           SKY/WX    TMP DP  RH WIND       PRES   REMARKS
TRI CITIES     FAIR      39  29  67 CALM      30.04F                  
$$

TNZ012-013-036-069-073-074-210600-
CENTRAL EAST TENNESSEE
  
CITY           SKY/WX    TMP DP  RH WIND       PRES   REMARKS
KNOXVILLE      FAIR      50  29  44 CALM      30.02F                  
OAK RIDGE      FAIR      48  31  51 CALM      30.04F                  
$$

TNZ083-085-099-210600-
SOUTHEAST TENNESSEE
  
CITY           SKY/WX    TMP DP  RH WIND       PRES   REMARKS
CHATTANOOGA    MOCLDY    53  29  39 S3        30.04F                  
$$

SKY/WX REPORTED AS FAIR MEANS FEW OR NO CLOUDS BELOW
12 THOUSAND FEET.